User: anonymous   Login
Location: Unspecified
(0.0000°N, 0.0000°E)
Time: 22:21:41
(UTC+01:00)
Language:

Cosmos 1833 Rocket - Orbit

View from above orbital plane
View from above orbital plane
View from above satellite
View from above satellite

Ground track
Ground track

The orbit data is extracted from the following two-line orbital elements,

1 17590U 87027B   14328.44785232  .00000096  00000-0  72231-4 0  8329
2 17590 071.0039 320.3028 0007524 286.5682 073.4615 14.16664991431592
Epoch (UTC): 24 November 2014 10:44:54
Eccentricity: 0.0007524
inclination: 71.0039°
perigee height: 831 km
apogee height: 842 km
right ascension of ascending node: 320.3028°
argument of perigee: 286.5682°
revolutions per day: 14.16664991
mean anomaly at epoch: 73.4615°
orbit number at epoch: 43159

The dashed part of the orbit path shows where the satellite is in the earth's shadow,  

DLR